| time (UTC) | temp F | wind direction | speed MPH | gust MPH | rain 1hr in | rain 24hr in | rain mn in | humidity % | barometer mb |
| 20260902195704 | 75 | 239 | 0.0 | 2.0 | 0.01 | 0.10 | 0.10 | 89 | 1016.5 |
| 20260902194204 | 75 | 163 | 2.0 | 3.0 | 0.01 | 0.10 | 0.10 | 88 | 1015.9 |
| 20260902193704 | 75 | 141 | 3.0 | 8.0 | 0.01 | 0.10 | 0.10 | 87 | 1015.9 |
| 20260902192204 | 76 | 129 | 1.0 | 5.0 | 0.01 | 0.10 | 0.10 | 88 | 1015.8 |
| 20260902191704 | 76 | 236 | 2.0 | 3.0 | 0.01 | 0.10 | 0.10 | 87 | 1016.0 |
| 20260902191204 | 76 | 108 | 2.0 | 5.0 | 0.02 | 0.10 | 0.10 | 89 | 1016.3 |
| 20260902190704 | 76 | 134 | 2.0 | 8.0 | 0.03 | 0.10 | 0.10 | 89 | 1016.2 |
| 20260902190204 | 76 | 129 | 5.0 | 10.0 | 0.06 | 0.09 | 0.09 | 89 | 1016.3 |
| 20260902185207 | 76 | 102 | 5.0 | 8.0 | 0.09 | 0.09 | 0.09 | 87 | 1017.5 |
| 20260902184704 | 76 | 66 | 4.0 | 12.0 | 0.09 | 0.09 | 0.09 | 87 | 1017.6 |
| 20260902184204 | 76 | 88 | 7.0 | 12.0 | 0.09 | 0.09 | 0.09 | 87 | 1017.2 |
| 20260902183704 | 76 | 84 | 7.0 | 12.0 | 0.09 | 0.09 | 0.09 | 88 | 1016.9 |
| 20260902183204 | 76 | 40 | 3.0 | 6.0 | 0.09 | 0.09 | 0.09 | 86 | 1017.2 |
| 20260902182704 | 76 | 17 | 3.0 | 5.0 | 0.09 | 0.09 | 0.09 | 86 | 1017.1 |
| 20260902181704 | 77 | 293 | 4.0 | 7.0 | 0.09 | 0.09 | 0.09 | 83 | 1017.7 |
| 20260902180704 | 79 | 323 | 5.0 | 13.0 | 0.07 | 0.07 | 0.07 | 78 | 1018.5 |
| 20260902180204 | 81 | 344 | 10.0 | 29.0 | 0.03 | 0.03 | 0.03 | 71 | 1019.0 |
| 20260902175704 | 84 | 341 | 12.0 | 22.0 | 0.00 | 0.00 | 0.00 | 68 | 1018.8 |
| 20260902175205 | 86 | 1 | 6.0 | 12.0 | 0.00 | 0.00 | 0.00 | 72 | 1018.5 |
| 20260902174704 | 87 | 341 | 2.0 | 6.0 | 0.00 | 0.00 | 0.00 | 72 | 1017.8 |
| 20260902174204 | 87 | 308 | 0.0 | 2.0 | 0.00 | 0.00 | 0.00 | 74 | 1017.5 |
| 20260902173704 | 87 | 65 | 3.0 | 3.0 | 0.00 | 0.00 | 0.00 | 72 | 1017.5 |
| 20260902173204 | 87 | 27 | 5.0 | 7.0 | 0.00 | 0.00 | 0.00 | 73 | 1017.2 |
| 20260902172704 | 87 | 71 | 1.0 | 3.0 | 0.00 | 0.00 | 0.00 | 73 | 1017.2 |
| 20260902172204 | 87 | 100 | 2.0 | 5.0 | 0.00 | 0.00 | 0.00 | 73 | 1017.2 |
| 20260902170704 | 87 | 56 | 3.0 | 5.0 | 0.00 | 0.00 | 0.00 | 72 | 1016.9 |
| 20260902170205 | 87 | 59 | 2.0 | 5.0 | 0.00 | 0.00 | 0.00 | 71 | 1016.9 |
| 20260902165704 | 87 | 237 | 2.0 | 8.0 | 0.00 | 0.00 | 0.00 | 72 | 1016.9 |
| 20260902165204 | 87 | 27 | 4.0 | 6.0 | 0.00 | 0.00 | 0.00 | 71 | 1016.8 |
| 20260902164704 | 87 | 152 | 3.0 | 6.0 | 0.00 | 0.00 | 0.00 | 75 | 1016.7 |
| 20260902164204 | 87 | 116 | 4.0 | 8.0 | 0.00 | 0.00 | 0.00 | 75 | 1016.7 |
| 20260902163704 | 86 | 55 | 3.0 | 8.0 | 0.00 | 0.00 | 0.00 | 72 | 1016.7 |
| 20260902163204 | 86 | 105 | 3.0 | 8.0 | 0.00 | 0.00 | 0.00 | 74 | 1016.7 |
| 20260902162705 | 86 | 139 | 3.0 | 7.0 | 0.00 | 0.00 | 0.00 | 74 | 1016.7 |
| 20260902161704 | 86 | 72 | 7.0 | 12.0 | 0.00 | 0.00 | 0.00 | 74 | 1016.7 |
| 20260902160704 | 86 | 103 | 3.0 | 10.0 | 0.00 | 0.00 | 0.00 | 74 | 1016.7 |
| 20260902160204 | 86 | 62 | 6.0 | 10.0 | 0.00 | 0.00 | 0.00 | 74 | 1016.8 |
| 20260902155704 | 85 | 2 | 1.0 | 5.0 | 0.00 | 0.00 | 0.00 | 74 | 1016.9 |
| 20260902155204 | 85 | 11 | 5.0 | 12.0 | 0.00 | 0.00 | 0.00 | 74 | 1017.0 |
| 20260902154705 | 85 | 80 | 6.0 | 12.0 | 0.00 | 0.00 | 0.00 | 76 | 1016.9 |
| 20260902154204 | 85 | 26 | 5.0 | 12.0 | 0.00 | 0.00 | 0.00 | 73 | 1016.9 |
| 20260902153704 | 85 | 102 | 3.0 | 7.0 | 0.00 | 0.00 | 0.00 | 75 | 1016.8 |
| 20260902153205 | 85 | 106 | 6.0 | 9.0 | 0.00 | 0.00 | 0.00 | 76 | 1016.9 |
| 20260902152204 | 84 | 39 | 4.0 | 12.0 | 0.00 | 0.00 | 0.00 | 76 | 1017.0 |
| 20260902151704 | 84 | 49 | 7.0 | 12.0 | 0.00 | 0.00 | 0.00 | 77 | 1016.9 |
| 20260902151204 | 84 | 110 | 5.0 | 10.0 | 0.00 | 0.00 | 0.00 | 77 | 1016.9 |
| 20260902150205 | 83 | 101 | 5.0 | 10.0 | 0.00 | 0.00 | 0.00 | 78 | 1016.9 |
| 20260902145704 | 83 | 92 | 9.0 | 12.0 | 0.00 | 0.00 | 0.00 | 77 | 1016.9 |
| 20260902145204 | 83 | 81 | 9.0 | 12.0 | 0.00 | 0.00 | 0.00 | 78 | 1016.8 |
| 20260902144704 | 83 | 76 | 6.0 | 13.0 | 0.00 | 0.00 | 0.00 | 78 | 1016.7 |
| 20260902144204 | 82 | 109 | 5.0 | 12.0 | 0.00 | 0.00 | 0.00 | 79 | 1016.7 |
| 20260902143704 | 82 | 123 | 7.0 | 12.0 | 0.00 | 0.00 | 0.00 | 80 | 1016.6 |
| 20260902143205 | 82 | 71 | 9.0 | 13.0 | 0.00 | 0.00 | 0.00 | 80 | 1016.7 |
| 20260902142705 | 82 | 86 | 7.0 | 12.0 | 0.00 | 0.00 | 0.00 | 79 | 1016.7 |
| 20260902141204 | 81 | 55 | 6.0 | 9.0 | 0.00 | 0.00 | 0.00 | 80 | 1016.9 |
| 20260902140704 | 81 | 94 | 6.0 | 10.0 | 0.00 | 0.00 | 0.00 | 80 | 1016.9 |
| 20260902140204 | 81 | 87 | 8.0 | 12.0 | 0.00 | 0.00 | 0.00 | 82 | 1017.0 |
| 20260902135704 | 80 | 80 | 7.0 | 9.0 | 0.00 | 0.00 | 0.00 | 80 | 1017.0 |
| 20260902135204 | 80 | 46 | 3.0 | 9.0 | 0.00 | 0.00 | 0.00 | 82 | 1017.0 |
| 20260902134704 | 80 | 80 | 6.0 | 12.0 | 0.00 | 0.00 | 0.00 | 84 | 1017.0 |
| 20260902134204 | 79 | 58 | 8.0 | 12.0 | 0.00 | 0.00 | 0.00 | 84 | 1016.8 |
| 20260902133704 | 79 | 51 | 6.0 | 9.0 | 0.00 | 0.00 | 0.00 | 83 | 1016.7 |
| 20260902132704 | 79 | 74 | 7.0 | 12.0 | 0.00 | 0.00 | 0.00 | 83 | 1016.5 |
| 20260902131704 | 79 | 67 | 8.0 | 13.0 | 0.00 | 0.00 | 0.00 | 83 | 1016.4 |
| 20260902131204 | 79 | 87 | 9.0 | 15.0 | 0.00 | 0.00 | 0.00 | 85 | 1016.4 |
| 20260902130704 | 79 | 83 | 10.0 | 13.0 | 0.00 | 0.00 | 0.00 | 83 | 1016.4 |
| 20260902130204 | 79 | 85 | 10.0 | 14.0 | 0.00 | 0.00 | 0.00 | 84 | 1016.4 |
| 20260902125704 | 78 | 73 | 12.0 | 14.0 | 0.00 | 0.00 | 0.00 | 85 | 1016.4 |
| 20260902124704 | 78 | 57 | 9.0 | 12.0 | 0.00 | 0.00 | 0.00 | 85 | 1016.4 |
| 20260902124204 | 78 | 73 | 9.0 | 13.0 | 0.00 | 0.00 | 0.00 | 86 | 1016.3 |
| 20260902123704 | 77 | 73 | 5.0 | 12.0 | 0.00 | 0.00 | 0.00 | 85 | 1016.3 |
| 20260902123204 | 77 | 72 | 7.0 | 12.0 | 0.00 | 0.00 | 0.00 | 85 | 1016.3 |
| 20260902122704 | 77 | 73 | 8.0 | 13.0 | 0.00 | 0.00 | 0.00 | 85 | 1016.3 |
| 20260902122204 | 77 | 58 | 5.0 | 10.0 | 0.00 | 0.00 | 0.00 | 87 | 1016.3 |
| 20260902121704 | 76 | 68 | 5.0 | 8.0 | 0.00 | 0.00 | 0.00 | 87 | 1016.3 |
| 20260902121204 | 76 | 58 | 6.0 | 10.0 | 0.00 | 0.00 | 0.00 | 87 | 1016.3 |
| 20260902120705 | 76 | 72 | 6.0 | 12.0 | 0.00 | 0.00 | 0.00 | 87 | 1016.3 |
| 20260902120204 | 76 | 58 | 9.0 | 12.0 | 0.00 | 0.00 | 0.00 | 88 | 1016.3 |
| 20260902115203 | 76 | 65 | 8.0 | 12.0 | 0.00 | 0.00 | 0.00 | 88 | 1016.4 |
| 20260902114704 | 75 | 58 | 9.0 | 10.0 | 0.00 | 0.00 | 0.00 | 89 | 1016.3 |
| 20260902114204 | 75 | 72 | 8.0 | 12.0 | 0.00 | 0.00 | 0.00 | 91 | 1016.2 |
| 20260902113704 | 75 | 83 | 6.0 | 9.0 | 0.00 | 0.00 | 0.00 | 91 | 1016.2 |
| 20260902112704 | 74 | 68 | 7.0 | 10.0 | 0.00 | 0.00 | 0.00 | 92 | 1016.2 |
| 20260902112204 | 74 | 67 | 5.0 | 10.0 | 0.00 | 0.00 | 0.00 | 92 | 1016.1 |
| 20260902111704 | 74 | 71 | 6.0 | 9.0 | 0.00 | 0.00 | 0.00 | 92 | 1016.0 |
| 20260902111204 | 74 | 62 | 4.0 | 8.0 | 0.00 | 0.00 | 0.00 | 92 | 1016.0 |
| 20260902110704 | 74 | 50 | 2.0 | 5.0 | 0.00 | 0.00 | 0.00 | 92 | 1016.0 |
| 20260902105704 | 73 | 58 | 1.0 | 3.0 | 0.00 | 0.00 | 0.00 | 91 | 1015.8 |
| 20260902105204 | 73 | 28 | 2.0 | 3.0 | 0.00 | 0.00 | 0.00 | 91 | 1015.8 |
| 20260902104704 | 73 | 20 | 2.0 | 5.0 | 0.00 | 0.00 | 0.00 | 91 | 1015.6 |
| 20260902103704 | 73 | 67 | 2.0 | 3.0 | 0.00 | 0.00 | 0.00 | 90 | 1015.6 |
| 20260902103204 | 73 | 78 | 2.0 | 3.0 | 0.00 | 0.00 | 0.00 | 90 | 1015.4 |
| 20260902100704 | 73 | 24 | 0.0 | 0.0 | 0.00 | 0.00 | 0.00 | 90 | 1015.5 |
| 20260902100204 | 73 | 24 | 1.0 | 1.0 | 0.00 | 0.00 | 0.00 | 90 | 1015.6 |
| 20260902095704 | 73 | 24 | 0.0 | 1.0 | 0.00 | 0.00 | 0.00 | 90 | 1015.5 |
| 20260902095204 | 73 | 24 | 1.0 | 2.0 | 0.00 | 0.00 | 0.00 | 90 | 1015.5 |
| 20260902094705 | 73 | 24 | 0.0 | 2.0 | 0.00 | 0.00 | 0.00 | 89 | 1015.4 |
| 20260902094205 | 73 | 24 | 0.0 | 0.0 | 0.00 | 0.00 | 0.00 | 89 | 1015.3 |
| 20260902093706 | 73 | 24 | 0.0 | 2.0 | 0.00 | 0.00 | 0.00 | 89 | 1015.3 |
| 20260902093206 | 73 | 24 | 1.0 | 2.0 | 0.00 | 0.00 | 0.00 | 89 | 1015.4 |
| 20260902092206 | 73 | 337 | 0.0 | 1.0 | 0.00 | 0.00 | 0.00 | 88 | 1015.4 |
| 20260902091706 | 74 | 325 | 0.0 | 1.0 | 0.00 | 0.00 | 0.00 | 88 | 1015.4 |
| 20260902091205 | 74 | 334 | 0.0 | 1.0 | 0.00 | 0.00 | 0.00 | 88 | 1015.3 |
| 20260902090705 | 74 | 334 | 0.0 | 2.0 | 0.00 | 0.00 | 0.00 | 87 | 1015.4 |
| 20260902090206 | 74 | 349 | 0.0 | 0.0 | 0.00 | 0.00 | 0.00 | 87 | 1015.6 |
| 20260902085705 | 74 | 10 | 0.0 | 1.0 | 0.00 | 0.00 | 0.00 | 87 | 1015.4 |
| 20260902085206 | 74 | 10 | 1.0 | 2.0 | 0.00 | 0.00 | 0.00 | 87 | 1015.4 |
| 20260902084706 | 74 | 10 | 0.0 | 1.0 | 0.00 | 0.00 | 0.00 | 87 | 1015.4 |
| 20260902084205 | 74 | 10 | 0.0 | 2.0 | 0.00 | 0.00 | 0.00 | 86 | 1015.3 |
| 20260902083706 | 75 | 10 | 1.0 | 2.0 | 0.00 | 0.00 | 0.00 | 86 | 1015.3 |
| 20260902083205 | 75 | 88 | 1.0 | 1.0 | 0.00 | 0.00 | 0.00 | 86 | 1015.4 |
| 20260902082205 | 75 | 131 | 0.0 | 2.0 | 0.00 | 0.00 | 0.00 | 86 | 1015.3 |
| 20260902081705 | 75 | 131 | 1.0 | 2.0 | 0.00 | 0.00 | 0.00 | 85 | 1015.1 |
| 20260902080705 | 75 | 86 | 2.0 | 3.0 | 0.00 | 0.00 | 0.00 | 85 | 1015.1 |
| 20260902080206 | 75 | 60 | 1.0 | 3.0 | 0.00 | 0.00 | 0.00 | 86 | 1015.1 |
| 20260902075706 | 75 | 91 | 0.0 | 2.0 | 0.00 | 0.00 | 0.00 | 86 | 1015.1 |
| 20260902075205 | 76 | 114 | 1.0 | 3.0 | 0.00 | 0.00 | 0.00 | 85 | 1015.0 |
| 20260902074705 | 76 | 105 | 1.0 | 3.0 | 0.00 | 0.00 | 0.00 | 85 | 1015.0 |
| 20260902074206 | 76 | 105 | 1.0 | 2.0 | 0.00 | 0.00 | 0.00 | 85 | 1015.0 |
| 20260902073705 | 76 | 105 | 1.0 | 3.0 | 0.00 | 0.00 | 0.00 | 86 | 1014.9 |
| 20260902073205 | 76 | 105 | 1.0 | 3.0 | 0.00 | 0.00 | 0.00 | 85 | 1014.8 |
| 20260902072705 | 76 | 100 | 2.0 | 3.0 | 0.00 | 0.00 | 0.00 | 85 | 1014.9 |
| 20260902072206 | 76 | 96 | 1.0 | 3.0 | 0.00 | 0.00 | 0.00 | 85 | 1014.9 |
| 20260902071705 | 76 | 101 | 2.0 | 3.0 | 0.00 | 0.00 | 0.00 | 85 | 1014.8 |
| 20260902071206 | 76 | 108 | 2.0 | 3.0 | 0.00 | 0.00 | 0.00 | 84 | 1014.6 |
| 20260902070706 | 76 | 141 | 2.0 | 3.0 | 0.00 | 0.00 | 0.00 | 85 | 1014.7 |
| 20260902070206 | 76 | 120 | 1.0 | 3.0 | 0.00 | 0.00 | 0.00 | 85 | 1014.7 |
| 20260902065705 | 76 | 92 | 2.0 | 5.0 | 0.00 | 0.00 | 0.00 | 85 | 1014.6 |
| 20260902064705 | 76 | 111 | 2.0 | 6.0 | 0.00 | 0.00 | 0.00 | 85 | 1014.6 |
| 20260902064205 | 76 | 96 | 3.0 | 7.0 | 0.00 | 0.00 | 0.00 | 85 | 1014.6 |
| 20260902063705 | 77 | 82 | 2.0 | 6.0 | 0.00 | 0.00 | 0.00 | 84 | 1014.7 |
| 20260902063205 | 77 | 86 | 4.0 | 12.0 | 0.00 | 0.00 | 0.00 | 84 | 1014.8 |
| 20260902062705 | 77 | 98 | 3.0 | 9.0 | 0.00 | 0.00 | 0.00 | 83 | 1014.7 |
| 20260902061705 | 77 | 67 | 6.0 | 10.0 | 0.00 | 0.00 | 0.00 | 83 | 1015.0 |
| 20260902060705 | 77 | 33 | 5.0 | 9.0 | 0.00 | 0.00 | 0.00 | 82 | 1015.3 |
| 20260902055205 | 78 | 107 | 5.0 | 13.0 | 0.00 | 0.00 | 0.00 | 82 | 1014.8 |
| 20260902054706 | 78 | 79 | 3.0 | 13.0 | 0.00 | 0.00 | 0.00 | 80 | 1014.6 |
| 20260902054206 | 78 | 67 | 10.0 | 14.0 | 0.00 | 0.00 | 0.00 | 81 | 1014.9 |
| 20260902053706 | 78 | 109 | 7.0 | 14.0 | 0.00 | 0.00 | 0.00 | 80 | 1014.5 |
| 20260902052705 | 79 | 188 | 0.0 | 1.0 | 0.00 | 0.00 | 0.00 | 80 | 1014.1 |
| 20260902051705 | 79 | 202 | 1.0 | 2.0 | 0.00 | 0.00 | 0.00 | 79 | 1014.1 |
| 20260902051205 | 79 | 122 | 1.0 | 2.0 | 0.00 | 0.00 | 0.00 | 80 | 1014.2 |
| 20260902045705 | 79 | 149 | 1.0 | 3.0 | 0.00 | 0.00 | 0.00 | 81 | 1014.2 |
| 20260902045205 | 80 | 118 | 1.0 | 3.0 | 0.00 | 0.00 | 0.00 | 81 | 1014.2 |
| 20260902044705 | 80 | 87 | 2.0 | 3.0 | 0.00 | 0.00 | 0.00 | 81 | 1014.4 |
| 20260902043705 | 80 | 66 | 3.0 | 5.0 | 0.00 | 0.00 | 0.00 | 80 | 1014.3 |
| 20260902042705 | 80 | 93 | 3.0 | 10.0 | 0.00 | 0.00 | 0.00 | 82 | 1014.5 |
| 20260902042206 | 80 | 94 | 5.0 | 10.0 | 0.00 | 0.00 | 0.00 | 80 | 1014.4 |
| 20260902041705 | 81 | 91 | 7.0 | 12.0 | 0.00 | 0.00 | 0.00 | 84 | 1014.6 |
| 20260902041206 | 81 | 80 | 4.0 | 6.0 | 0.00 | 0.00 | 0.00 | 85 | 1014.5 |
| 20260902040705 | 81 | 75 | 3.0 | 7.0 | 0.00 | 0.00 | 0.00 | 85 | 1014.4 |
| 20260902040205 | 81 | 81 | 3.0 | 5.0 | 0.00 | 0.00 | 0.00 | 86 | 1014.5 |
| 20260902035705 | 81 | 67 | 3.0 | 5.0 | 0.00 | 0.00 | 0.00 | 86 | 1014.4 |
| 20260902035206 | 81 | 127 | 2.0 | 3.0 | 0.00 | 0.00 | 0.00 | 86 | 1014.3 |
| 20260902034705 | 81 | 318 | 1.0 | 2.0 | 0.00 | 0.00 | 0.00 | 86 | 1014.2 |
| 20260902034206 | 81 | 317 | 1.0 | 3.0 | 0.00 | 0.00 | 0.00 | 86 | 1014.1 |
| 20260902033705 | 81 | 39 | 1.0 | 10.0 | 0.00 | 0.00 | 0.00 | 87 | 1014.1 |
| 20260902033205 | 81 | 65 | 7.0 | 10.0 | 0.00 | 0.00 | 0.00 | 89 | 1013.9 |
| 20260902032206 | 81 | 88 | 0.0 | 2.0 | 0.00 | 0.00 | 0.00 | 88 | 1013.6 |
| 20260902031705 | 81 | 142 | 1.0 | 2.0 | 0.00 | 0.00 | 0.00 | 88 | 1013.6 |
| 20260902031206 | 81 | 142 | 1.0 | 2.0 | 0.00 | 0.00 | 0.00 | 88 | 1013.6 |
| 20260902030206 | 81 | 122 | 0.0 | 1.0 | 0.00 | 0.00 | 0.00 | 87 | 1013.5 |
| 20260902025706 | 81 | 122 | 0.0 | 1.0 | 0.00 | 0.00 | 0.00 | 87 | 1013.5 |
| 20260902024205 | 81 | 268 | 0.0 | 1.0 | 0.00 | 0.00 | 0.00 | 86 | 1013.2 |
| 20260902023705 | 82 | 268 | 0.0 | 2.0 | 0.00 | 0.00 | 0.00 | 87 | 1013.2 |
| 20260902023205 | 82 | 268 | 0.0 | 2.0 | 0.00 | 0.00 | 0.00 | 87 | 1013.1 |
| 20260902022705 | 82 | 228 | 2.0 | 3.0 | 0.00 | 0.00 | 0.00 | 87 | 1013.2 |
| 20260902021705 | 82 | 164 | 1.0 | 2.0 | 0.00 | 0.00 | 0.00 | 86 | 1013.2 |
| 20260902021206 | 82 | 139 | 1.0 | 2.0 | 0.00 | 0.00 | 0.00 | 86 | 1013.3 |
| 20260902020705 | 82 | 192 | 3.0 | 5.0 | 0.00 | 0.00 | 0.00 | 86 | 1013.3 |
| 20260902015705 | 82 | 237 | 6.0 | 7.0 | 0.00 | 0.00 | 0.00 | 86 | 1012.9 |
| 20260902015205 | 82 | 234 | 5.0 | 10.0 | 0.00 | 0.00 | 0.00 | 86 | 1012.9 |
| 20260902014705 | 82 | 240 | 7.0 | 12.0 | 0.00 | 0.00 | 0.00 | 86 | 1012.8 |
| 20260902013705 | 82 | 225 | 8.0 | 12.0 | 0.00 | 0.00 | 0.00 | 85 | 1012.6 |
| 20260902013205 | 82 | 217 | 9.0 | 13.0 | 0.00 | 0.00 | 0.00 | 85 | 1012.5 |
| 20260902012705 | 82 | 209 | 9.0 | 12.0 | 0.00 | 0.00 | 0.00 | 84 | 1012.5 |
| 20260902012205 | 82 | 219 | 9.0 | 12.0 | 0.00 | 0.00 | 0.00 | 84 | 1012.5 |
| 20260902011705 | 82 | 214 | 8.0 | 9.0 | 0.00 | 0.00 | 0.00 | 83 | 1012.5 |
| 20260902011205 | 82 | 217 | 7.0 | 9.0 | 0.00 | 0.00 | 0.00 | 83 | 1012.6 |
| 20260902010705 | 82 | 214 | 7.0 | 10.0 | 0.00 | 0.00 | 0.00 | 83 | 1012.7 |
| 20260902010205 | 82 | 223 | 7.0 | 10.0 | 0.00 | 0.00 | 0.00 | 83 | 1012.7 |
| 20260902005705 | 82 | 227 | 8.0 | 12.0 | 0.00 | 0.00 | 0.00 | 82 | 1012.6 |
| 20260902005205 | 82 | 216 | 9.0 | 12.0 | 0.00 | 0.00 | 0.00 | 82 | 1012.6 |
| 20260902004705 | 82 | 219 | 9.0 | 12.0 | 0.00 | 0.00 | 0.00 | 82 | 1012.3 |
| 20260902004205 | 82 | 227 | 9.0 | 12.0 | 0.00 | 0.00 | 0.00 | 82 | 1012.3 |
| 20260902003705 | 83 | 225 | 9.0 | 12.0 | 0.00 | 0.00 | 0.00 | 82 | 1012.2 |
| 20260902003205 | 83 | 222 | 9.0 | 12.0 | 0.00 | 0.00 | 0.00 | 81 | 1011.9 |
| 20260902002706 | 83 | 221 | 9.0 | 10.0 | 0.00 | 0.00 | 0.00 | 81 | 1011.7 |
| 20260902002205 | 83 | 221 | 9.0 | 12.0 | 0.00 | 0.00 | 0.00 | 81 | 1011.3 |
| 20260902001705 | 83 | 221 | 10.0 | 12.0 | 0.00 | 0.00 | 0.00 | 80 | 1011.2 |
| 20260902001205 | 83 | 216 | 10.0 | 12.0 | 0.00 | 0.00 | 0.00 | 80 | 1011.2 |
| 20260902000705 | 83 | 220 | 10.0 | 12.0 | 0.00 | 0.00 | 0.00 | 79 | 1011.4 |
| 20260902000205 | 84 | 212 | 9.0 | 12.0 | 0.00 | 0.00 | 0.00 | 78 | 1011.6 |
| 20260901234705 | 84 | 232 | 6.0 | 9.0 | 0.00 | 0.00 | 0.00 | 78 | 1011.8 |
| 20260901234205 | 85 | 224 | 7.0 | 9.0 | 0.00 | 0.00 | 0.00 | 77 | 1011.8 |
| 20260901233705 | 85 | 219 | 7.0 | 12.0 | 0.00 | 0.00 | 0.00 | 77 | 1011.8 |
| 20260901233205 | 85 | 216 | 8.0 | 10.0 | 0.00 | 0.00 | 0.00 | 77 | 1011.8 |
| 20260901232705 | 85 | 211 | 7.0 | 10.0 | 0.00 | 0.00 | 0.00 | 76 | 1011.7 |
| 20260901232205 | 86 | 211 | 6.0 | 10.0 | 0.00 | 0.00 | 0.00 | 76 | 1011.9 |
| 20260901231704 | 86 | 208 | 7.0 | 9.0 | 0.00 | 0.00 | 0.00 | 76 | 1011.9 |
| 20260901230705 | 86 | 205 | 6.0 | 8.0 | 0.00 | 0.00 | 0.00 | 75 | 1012.1 |
| 20260901230205 | 87 | 211 | 6.0 | 10.0 | 0.00 | 0.00 | 0.00 | 75 | 1012.0 |
| 20260901225705 | 87 | 200 | 6.0 | 8.0 | 0.00 | 0.00 | 0.00 | 75 | 1012.1 |
| 20260901225205 | 87 | 203 | 7.0 | 10.0 | 0.00 | 0.00 | 0.00 | 74 | 1012.1 |
| 20260901224705 | 87 | 198 | 8.0 | 10.0 | 0.00 | 0.00 | 0.00 | 74 | 1012.1 |
| 20260901224205 | 87 | 204 | 8.0 | 12.0 | 0.00 | 0.00 | 0.00 | 73 | 1012.0 |
| 20260901223205 | 88 | 197 | 7.0 | 12.0 | 0.00 | 0.00 | 0.00 | 74 | 1012.0 |
| 20260901222705 | 88 | 207 | 9.0 | 12.0 | 0.00 | 0.00 | 0.00 | 73 | 1012.1 |
| 20260901222205 | 88 | 201 | 9.0 | 13.0 | 0.00 | 0.00 | 0.00 | 72 | 1012.0 |
| 20260901221705 | 88 | 198 | 7.0 | 12.0 | 0.00 | 0.00 | 0.00 | 72 | 1012.0 |
| 20260901221205 | 88 | 210 | 8.0 | 12.0 | 0.00 | 0.00 | 0.00 | 72 | 1012.2 |
| 20260901220206 | 89 | 207 | 8.0 | 12.0 | 0.00 | 0.00 | 0.00 | 71 | 1012.3 |
| 20260901215705 | 89 | 195 | 7.0 | 12.0 | 0.00 | 0.00 | 0.00 | 70 | 1012.2 |
| 20260901215205 | 89 | 187 | 7.0 | 10.0 | 0.00 | 0.00 | 0.00 | 69 | 1012.2 |
| 20260901214705 | 89 | 197 | 7.0 | 12.0 | 0.00 | 0.00 | 0.00 | 69 | 1012.3 |
| 20260901214205 | 90 | 193 | 6.0 | 9.0 | 0.00 | 0.00 | 0.00 | 69 | 1012.5 |
| 20260901213705 | 90 | 192 | 7.0 | 10.0 | 0.00 | 0.00 | 0.00 | 69 | 1012.5 |
| 20260901213205 | 90 | 197 | 7.0 | 12.0 | 0.00 | 0.00 | 0.00 | 67 | 1012.4 |
| 20260901212705 | 91 | 200 | 7.0 | 10.0 | 0.00 | 0.00 | 0.00 | 66 | 1012.4 |
| 20260901212205 | 91 | 189 | 7.0 | 12.0 | 0.00 | 0.00 | 0.00 | 67 | 1012.5 |
| 20260901211205 | 92 | 192 | 9.0 | 12.0 | 0.00 | 0.00 | 0.00 | 65 | 1012.6 |
| 20260901210705 | 92 | 198 | 6.0 | 10.0 | 0.00 | 0.00 | 0.00 | 64 | 1012.6 |
| 20260901210205 | 93 | 195 | 7.0 | 12.0 | 0.00 | 0.00 | 0.00 | 63 | 1012.6 |
| 20260901205705 | 93 | 193 | 8.0 | 12.0 | 0.00 | 0.00 | 0.00 | 63 | 1012.7 |
| 20260901205206 | 93 | 188 | 7.0 | 10.0 | 0.00 | 0.00 | 0.00 | 63 | 1012.7 |
| 20260901204705 | 94 | 196 | 7.0 | 10.0 | 0.00 | 0.00 | 0.00 | 65 | 1012.7 |
| 20260901204205 | 93 | 181 | 7.0 | 12.0 | 0.00 | 0.00 | 0.00 | 65 | 1012.7 |
| 20260901203205 | 93 | 196 | 5.0 | 9.0 | 0.00 | 0.00 | 0.00 | 66 | 1012.7 |
| 20260901202705 | 93 | 205 | 6.0 | 9.0 | 0.00 | 0.00 | 0.00 | 67 | 1012.7 |
| 20260901201705 | 93 | 204 | 7.0 | 9.0 | 0.00 | 0.00 | 0.00 | 67 | 1012.9 |
| 20260901201205 | 92 | 201 | 6.0 | 8.0 | 0.00 | 0.00 | 0.00 | 67 | 1012.9 |
| 20260901200705 | 93 | 209 | 6.0 | 12.0 | 0.00 | 0.00 | 0.00 | 67 | 1012.9 |
| 20260901200205 | 93 | 188 | 6.0 | 10.0 | 0.00 | 0.00 | 0.00 | 64 | 1012.9 |